Погода в Кодиаке

США     57°48′03″N   152°23′04″W
темп.,
°C
ветер,
м/с
пор.,
м/с
влажн.,
%
обл.,
%
осадки,
мм/ч
давл.,
гПа
погр.,
м
25 февраля, чт
чт2500:00−2зюз227911 0.0 100762
03:00+1з1421715 0.0 10101216
06:00+1з1020824 0.1 10101484
09:00+2з14237110 0.3 10131455
12:00+2з14217127 0.0 10161466
15:00+3з11206948 0.0 10191133
18:00+2юз387683 0.0 1019313
21:000юз347490 0.0 101998
26 февраля, пт
пт2600:000зюз226869 0.0 101953
03:00+2юз337884 0.0 101972
06:00+3юз4587100 0.0 101872
09:00+3юз3488100 0.0 101751
12:00+4юз3592100 0.0 1016155
15:00+3юз3590100 0.0 1012214
18:00+2юз4596100 0.0 1008161
21:00+4ююз4595100 0.0 1004112
27 февраля, сб
сб2700:00+4ююз4596100 0.3 999130
03:00+4юз3496100 1.0 99685
06:00+4юз3394100 0.0 99361
09:00+3з3392100 0.0 99162
12:00+4зюз297910 0.0 991753
15:00+2з5175733 0.0 992768
18:00−2зюз5186418 0.0 9941019
21:00−5з14226813 0.0 995713
28 февраля, вс
вс2800:00−6з1423640 0.0 997685
03:00−6з1222580 0.0 9981096
06:00−7зсз1224560 0.0 9991022
09:00−7зсз1022500 0.0 1002887
12:00−6зсз921470 0.0 1007831
15:00−5зсз616440 0.0 1010848
18:00−6з36510 0.0 1012414
21:00−7з22524 0.0 1011142
1 марта, пн
пн100:00−5ююв1248100 0.0 1008176
03:00−5юз3452100 0.1 1002270
06:00−5ссз2295100 1.4 993108
09:00−3зсз5692100 1.9 991207
12:00−2зсз6167156 0.0 994945
15:00+1зсз11156528 0.0 9971170
18:000з814680 0.0 997813
21:00−1зюз48736 0.0 997348